PDT,Max TemperatureF,Mean TemperatureF,Min TemperatureF,Max Dew PointF,MeanDew PointF,Min DewpointF,Max Humidity, Mean Humidity, Min Humidity, Max Sea Level PressureIn, Mean Sea Level PressureIn, Min Sea Level PressureIn, Max VisibilityMiles, Mean VisibilityMiles, Min VisibilityMiles, Max Wind SpeedMPH, Mean Wind SpeedMPH, Max Gust SpeedMPH,PrecipitationIn, CloudCover, Events, WindDirDegrees
2013-7-1,65,61,56,61,58,55,100,92,84,30.02,29.98,29.94,10,3,0,14,4,17,0.00,7,Fog,290
2013-7-2,64,60,56,59,57,55,100,92,84,30.03,30.00,29.97,10,5,0,15,6,20,0.00,6,Fog,193
2013-7-3,65,61,56,59,56,52,100,89,78,30.01,29.99,29.95,10,4,0,20,6,28,0.00,5,Fog,212
2013-7-4,62,58,53,56,52,50,93,83,72,29.99,29.96,29.91,8,6,3,23,11,35,0.00,3,,334
2013-7-5,60,55,49,52,50,48,100,86,72,29.93,29.86,29.77,8,5,1,33,19,47,0.00,3,,336
2013-7-6,61,55,48,54,51,46,100,88,75,29.85,29.82,29.78,10,5,2,17,7,20,0.00,6,,185
2013-7-7,58,54,49,54,51,48,100,93,86,29.92,29.86,29.84,10,4,0,12,5,,0.00,7,Fog,168
2013-7-8,56,54,51,54,52,48,100,93,86,30.01,29.95,29.91,10,4,0,14,5,,0.00,7,Fog,180
2013-7-9,57,53,49,54,50,46,100,93,86,30.07,30.03,29.99,10,4,0,12,5,21,0.00,5,Fog,188
2013-7-10,57,52,46,54,51,46,100,97,93,30.03,29.98,29.94,10,4,0,12,6,15,0.00,6,Fog,172
2013-7-11,58,55,51,53,51,49,100,90,80,29.99,29.97,29.94,10,7,2,15,7,21,0.00,5,,184
2013-7-12,61,55,48,52,50,48,100,85,69,30.03,30.00,29.97,10,8,5,20,5,26,0.00,3,,213
2013-7-13,61,55,48,54,51,48,100,86,72,30.01,29.99,29.97,10,6,0,15,5,18,0.00,3,Fog,178
2013-7-14,60,53,46,54,51,46,100,88,75,30.01,29.98,29.94,9,8,5,9,4,13,0.00,0,,183
2013-7-15,56,52,48,54,51,48,100,93,86,29.94,29.88,29.84,9,4,0,17,6,20,0.00,7,Fog,173
2013-7-16,57,54,51,54,52,51,100,90,80,30.08,29.96,29.85,10,8,2,10,4,20,0.00,8,,191
2013-7-17,60,57,53,54,52,49,93,86,78,30.19,30.15,30.09,10,10,7,12,4,15,0.00,5,,324
2013-7-18,58,55,51,54,52,50,100,90,80,30.15,30.11,30.06,10,7,0,14,5,17,0.00,6,Fog,165
2013-7-19,59,56,52,54,52,51,100,90,80,30.07,30.02,29.97,10,8,2,15,5,18,0.00,7,,170
2013-7-20,58,55,51,54,52,48,100,90,80,30.00,29.92,29.85,10,7,2,15,5,21,0.00,7,,188
2013-7-21,56,53,50,52,51,50,100,92,83,29.88,29.84,29.82,10,3,0,14,5,17,0.00,7,Fog,167
2013-7-22,56,53,49,53,51,48,100,93,86,30.00,29.95,29.87,10,3,0,12,5,16,0.00,7,Fog,173
2013-7-23,55,51,47,52,50,46,100,92,83,30.05,30.03,29.99,10,6,0,13,4,16,0.00,4,Fog,221
2013-7-24,62,56,49,54,52,48,100,89,78,30.03,30.00,29.98,10,6,0,9,3,10,0.00,4,Fog,283
2013-7-25,62,58,53,56,53,50,100,89,78,30.03,29.99,29.97,10,8,2,12,4,15,0.00,3,,212
2013-7-26,61,56,51,52,52,50,96,84,72,30.11,30.07,30.03,10,7,0,12,6,14,0.00,3,Fog,171
2013-7-27,63,57,50,54,52,50,100,84,67,30.06,29.97,29.89,10,5,0,22,6,31,0.00,6,Fog,261
2013-7-28,62,54,46,52,50,46,100,86,72,29.96,29.91,29.85,9,5,0,24,8,33,0.00,8,Fog,319
2013-7-29,59,56,52,52,51,50,93,85,77,30.07,29.97,29.88,10,8,2,13,7,15,0.00,7,,186
2013-7-30,60,56,52,52,51,50,100,90,80,30.18,30.15,30.08,10,9,4,9,4,13,0.00,7,,240
2013-7-31,58,56,53,53,52,51,93,87,80,30.17,30.15,30.13,10,10,9,10,5,14,0.00,8,,191